[[{"header":{"parameterUnit":"m.s-1","parameterCategory":1,"la1":30.2991,"la2":30.254,"lo1":-89.0895,"lo2":-89.0444,"dy":0.0017,"dx":0.0017,"nx":28,"ny":28,"refTime":"2025-04-04T03:00:00:Z","depth":0,"parameterNumber":2,"parameterNumberName":"U-component_of_WINDS"},"data":[0,0,0,0,0,0,0,0,0,0,0,0,0,0,0,0,0,0,0,0,0,0,0,0,0,0,0,0,0,0,0,0,0,0,0,0,0,0,0,0,0,0,0,0,0,0,0,0,0,0,0,0,0,0,0,0,0,0,-3.4729,-3.4731,0,-3.4908,-3.491,-3.4912,-3.4956,-3.4955,-3.4954,-3.4953,-3.5137,-3.5143,-3.5149,0,0,0,0,0,0,0,0,0,0,0,0,0,-3.4429,-3.4434,-3.4729,-3.4731,-3.4734,-3.4907,-3.491,-3.4912,-3.4957,-3.4955,-3.4954,-3.4952,-3.5135,-3.5142,-3.5149,0,0,0,0,0,0,0,0,0,0,0,0,0,-3.4578,-3.4436,-3.4729,-3.4777,-3.4783,-3.4907,-3.491,-3.4913,-3.4957,-3.4955,-3.4953,-3.4952,-3.5133,-3.5141,-3.515,-3.524,0,0,-3.5177,-3.5181,0,0,0,0,0,0,0,0,-3.457,-3.4589,-3.4767,-3.4774,-3.4781,-3.4908,-3.4871,-3.5023,-3.4957,-3.4891,-3.4953,-3.4951,-3.5062,-3.5077,-3.5114,-3.5248,-3.5256,-3.5178,-3.5184,-3.5187,-3.519,0,0,0,0,0,0,0,-3.4559,-3.4582,-3.48,-3.477,-3.4778,-3.479,-3.4809,-3.49,-3.4984,-3.4896,-3.49,-3.4921,-3.5065,-3.5105,-3.5119,-3.5259,-3.5178,-3.5186,-3.5191,-3.5195,-3.5476,-3.5478,0,0,0,0,0,0,-3.4541,-3.4573,-3.4794,-3.4805,-3.4669,-3.4797,-3.4818,-3.4869,-3.4983,-3.4999,-3.4922,-3.4922,-3.5091,-3.5108,-3.5125,-3.5237,-3.5187,-3.5196,-3.5201,-3.5474,-3.5476,-3.5478,0,0,0,0,0,0,-3.4534,-3.456,-3.4787,-3.469,-3.472,-3.4804,-3.486,-3.4873,-3.4913,-3.5002,-3.5018,-3.4947,-3.509,-3.5113,-3.5211,-3.5244,-3.52,-3.5208,-3.5471,-3.5474,-3.5477,-3.5462,0,0,0,0,0,0,-3.4525,-3.4557,-3.4592,-3.4691,-3.4725,-3.4869,-3.4862,-3.4878,-3.4928,-3.493,-3.503,-3.5045,-3.5091,-3.5197,-3.522,-3.5256,-3.5215,-3.5468,-3.5473,-3.5476,-3.546,-3.5464,-3.5468,0,0,0,0,0,-3.4514,-3.4581,-3.4593,-3.462,-3.477,-3.4871,-3.489,-3.4941,-3.4931,-3.4966,-3.5024,-3.5042,-3.5237,-3.5207,-3.5233,-3.5272,-3.5467,-3.5471,-3.5476,-3.5458,-3.5463,-3.5468,0,0,0,0,0,0,-3.4484,-3.4594,-3.4609,-3.471,-3.478,-3.4878,-3.4924,-3.4945,-3.5021,-3.5019,-3.508,-3.5102,-3.5196,-3.5244,-3.5208,-3.5365,-3.5352,-3.5362,-3.5329,-3.5335,-3.5339,-3.5325,-3.5222,0,0,0,0,0,-3.4488,-3.4561,-3.4654,-3.4733,-3.4768,-3.484,-3.4886,-3.4919,-3.4995,-3.5025,-3.509,-3.5163,-3.5241,-3.5291,-3.5368,-3.5468,-3.549,-3.5507,-3.5511,-3.5514,-3.5522,-3.5578,-3.5587,-3.5494,-3.5494,-3.5494,0,0,-3.4499,-3.4569,-3.4611,-3.4729,-3.4788,-3.4861,-3.4865,-3.4943,-3.4998,-3.5037,-3.5133,-3.5183,-3.5269,-3.5368,-3.5415,-3.5411,-3.5553,-3.552,-3.5522,-3.5528,-3.5583,-3.5592,-3.56,-3.5497,-3.5496,-3.5496,0,0,-3.4556,-3.4616,-3.4689,-3.4748,-3.4836,-3.4884,-3.4901,-3.4996,-3.5031,-3.5128,-3.5159,-3.5226,-3.5359,-3.5419,-3.5467,-3.5547,-3.5567,-3.5571,-3.5592,-3.5645,-3.5653,-3.5659,-3.5687,-3.5697,-3.5579,-3.5579,-3.5578,0,-3.4559,-3.4671,-3.4724,-3.48,-3.4851,-3.489,-3.4964,-3.5019,-3.5128,-3.5163,-3.5157,-3.5325,-3.5385,-3.5499,-3.5518,-3.5556,-3.5578,-3.5559,-3.5647,-3.5655,-3.5662,-3.5689,-3.5699,-3.5578,-3.5578,-3.5578,-3.5578,0,-3.4669,-3.4746,-3.4794,-3.4898,-3.4955,-3.503,-3.5095,-3.5146,-3.5174,-3.5223,-3.5321,-3.5396,-3.5488,-3.5518,-3.5547,-3.5636,-3.563,-3.5635,-3.5623,-3.5669,-3.5696,-3.5707,-3.5578,-3.5578,-3.5578,-3.5578,0,0,-3.4711,-3.4843,-3.486,-3.4907,-3.5008,-3.5069,-3.5146,-3.5236,-3.5279,-3.5353,-3.5419,-3.5531,-3.5536,-3.5591,-3.5627,-3.5674,-3.5732,-3.5674,-3.5677,-3.5681,-3.5834,-3.5829,-3.584,-3.5746,-3.5749,-3.5751,-3.5827,0,-3.478,-3.4917,-3.4968,-3.5081,-3.5153,-3.5191,-3.5258,-3.5328,-3.5375,-3.5443,-3.5496,-3.5574,-3.5576,-3.5609,-3.5657,-3.5715,-3.5764,-3.571,-3.5808,-3.5811,-3.5784,-3.5854,-3.5849,-3.5918,-3.5838,-3.584,-3.5841,0,-3.4878,-3.4953,-3.5073,-3.5165,-3.5197,-3.5256,-3.5343,-3.5408,-3.5488,-3.5519,-3.5579,-3.5612,-3.5695,-3.5679,-3.5793,-3.5756,-3.5799,-3.5834,-3.5838,-3.5848,-3.5828,-3.5865,-3.5941,-3.595,-3.5858,-3.5857,-3.5855,0,-3.4896,-3.5027,-3.5116,-3.5155,-3.5265,-3.5305,-3.5353,-3.5431,-3.5482,-3.5558,-3.5591,-3.5676,-3.5722,-3.5787,-3.5843,-3.5826,-3.5952,-3.5941,-3.598,-3.5978,-3.6004,-3.6001,-3.6086,-3.6033,-3.6033,-3.6033,-3.6033,0,-3.4967,-3.5039,-3.5125,-3.5179,-3.5261,-3.5319,-3.5398,-3.5448,-3.5518,-3.5583,-3.5622,-3.5682,-3.5752,-3.5822,-3.5866,-3.5953,-3.5974,-3.6002,-3.6012,-3.5998,-3.5994,-3.6026,-3.6022,-3.6036,-3.6035,-3.6035,-3.6034,0,-3.5,-3.506,-3.5159,-3.5255,-3.5281,-3.5336,-3.5419,-3.5473,-3.5523,-3.5605,-3.5627,-3.5705,-3.5789,-3.5851,-3.596,-3.5989,-3.6083,-3.6094,-3.6055,-3.6061,-3.6096,-3.6091,-3.6203,-3.6221,-3.6157,-3.6158,-3.6158,0,-3.5041,-3.5097,-3.5198,-3.5244,-3.5291,-3.5365,-3.5417,-3.5476,-3.5529,-3.5624,-3.5667,-3.5754,-3.5826,-3.5959,-3.6025,-3.6109,-3.6122,-3.6155,-3.6135,-3.6118,-3.6121,-3.6117,-3.6123,-3.6158,-3.6158,-3.6159,-3.6159,0,-3.5107,-3.5134,-3.5206,-3.529,-3.535,-3.5419,-3.5489,-3.5524,-3.5596,-3.5653,-3.5739,-3.5795,-3.5907,-3.5992,-3.6082,-3.6132,-3.6158,-3.6165,-3.6178,-3.6163,-3.6138,-3.6151,-3.6062,-3.6162,-3.6162,-3.6161,-3.6161,-3.6161,-3.5145,-3.5196,-3.5275,-3.5355,-3.5413,-3.5477,-3.5533,-3.5589,-3.5661,-3.5756,-3.5787,-3.5875,-3.5954,-3.6078,-3.6129,-3.62,-3.6199,-3.6218,-3.6223,-3.6227,-3.6225,-3.6128,-3.6216,-3.6216,-3.6216,-3.6217,-3.6217,0,-3.5212,-3.5264,-3.5337,-3.5433,-3.5496,-3.5514,-3.5592,-3.5643,-3.572,-3.5792,-3.5862,-3.5961,-3.6044,-3.6117,-3.6203,-3.6246,-3.626,-3.6266,-3.6263,-3.6274,-3.6222,-3.6201,-3.6254,-3.6254,-3.6254,-3.6254,-3.6254,-3.6254,-3.5254,-3.5342,-3.5378,-3.5495,-3.5548,-3.5634,-3.5677,-3.5737,-3.5794,-3.5902,-3.5971,-3.6018,-3.609,-3.6182,-3.6259,-3.6278,-3.6308,-3.6312,-3.6334,-3.6283,-3.6278,-3.6274,-3.6255,-3.6318,-3.6318,-3.6381,-3.6381,-3.6382]},{"header":{"parameterUnit":"m.s-1","parameterCategory":1,"la1":30.2991,"la2":30.254,"lo1":-89.0895,"lo2":-89.0444,"dy":0.0017,"dx":0.0017,"nx":28,"ny":28,"refTime":"2025-04-04T03:00:00:Z","depth":0,"parameterNumber":3,"parameterNumberName":"V-component_of_WINDS"},"data":[0,0,0,0,0,0,0,0,0,0,0,0,0,0,0,0,0,0,0,0,0,0,0,0,0,0,0,0,0,0,0,0,0,0,0,0,0,0,0,0,0,0,0,0,0,0,0,0,0,0,0,0,0,0,0,0,0,0,5.2786,5.2786,0,5.2847,5.2847,5.2848,5.283,5.2829,5.2827,5.2826,5.2892,5.2895,5.2898,0,0,0,0,0,0,0,0,0,0,0,0,0,5.266,5.2662,5.2786,5.2786,5.2787,5.2846,5.2847,5.2848,5.283,5.2829,5.2827,5.2826,5.2891,5.2895,5.2898,0,0,0,0,0,0,0,0,0,0,0,0,0,5.2717,5.2663,5.2786,5.2785,5.2786,5.2846,5.2847,5.2848,5.283,5.2828,5.2827,5.2825,5.289,5.2894,5.2899,5.2964,0,0,5.2912,5.2914,0,0,0,0,0,0,0,0,5.2714,5.2722,5.2785,5.2785,5.2786,5.2829,5.2827,5.2887,5.2831,5.2814,5.2826,5.2824,5.2873,5.2878,5.2894,5.2967,5.297,5.2912,5.2915,5.2917,5.2918,0,0,0,0,0,0,0,5.271,5.2719,5.281,5.2786,5.2787,5.2784,5.279,5.2838,5.2853,5.2815,5.2814,5.2821,5.2873,5.289,5.2896,5.2971,5.2912,5.2916,5.2919,5.2921,5.3104,5.3106,0,0,0,0,0,0,5.2705,5.2716,5.2808,5.2812,5.2744,5.2788,5.2794,5.2817,5.2853,5.2856,5.2823,5.282,5.2883,5.289,5.2898,5.2979,5.2917,5.2921,5.2924,5.3102,5.3105,5.3107,0,0,0,0,0,0,5.2702,5.2713,5.2805,5.2763,5.2775,5.2792,5.2817,5.2819,5.2836,5.2858,5.2861,5.2837,5.2882,5.2892,5.2948,5.2981,5.2923,5.2927,5.31,5.3103,5.3106,5.3141,0,0,0,0,0,0,5.2698,5.2712,5.2736,5.2764,5.2777,5.2853,5.2819,5.2822,5.2843,5.2841,5.2873,5.2876,5.2881,5.2942,5.2953,5.2986,5.2931,5.3097,5.3101,5.3105,5.3137,5.3145,5.3152,0,0,0,0,0,5.2694,5.2743,5.2737,5.2748,5.2807,5.2855,5.2863,5.2867,5.2846,5.2871,5.2886,5.2875,5.2975,5.2948,5.296,5.2995,5.3095,5.31,5.3105,5.3133,5.3143,5.3151,0,0,0,0,0,0,5.2719,5.2747,5.274,5.28,5.2825,5.2852,5.2883,5.2877,5.2909,5.2905,5.291,5.2918,5.2976,5.2991,5.296,5.3062,5.3032,5.304,5.305,5.3059,5.3067,5.3063,5.2934,0,0,0,0,0,5.2731,5.2767,5.2789,5.284,5.2853,5.2866,5.2887,5.2888,5.2915,5.2926,5.2945,5.2973,5.3011,5.3036,5.3072,5.3139,5.3147,5.3169,5.3177,5.3183,5.319,5.3229,5.324,5.3124,5.3124,5.3124,0,0,5.2757,5.2777,5.2799,5.2846,5.2865,5.2904,5.2875,5.2917,5.2946,5.2933,5.2988,5.3003,5.3034,5.3097,5.3126,5.3111,5.3224,5.3189,5.3194,5.3197,5.3235,5.3246,5.3256,5.3127,5.3127,5.3126,0,0,5.2825,5.2842,5.2887,5.2908,5.2938,5.2947,5.2958,5.2986,5.2996,5.305,5.3042,5.3078,5.3143,5.3166,5.3187,5.3266,5.3259,5.3278,5.3317,5.3356,5.3365,5.3373,5.3404,5.3414,5.3284,5.3285,5.3285,0,5.2854,5.291,5.2912,5.2954,5.2976,5.2966,5.3013,5.3033,5.3074,5.3091,5.3074,5.3157,5.3177,5.3246,5.3266,5.3282,5.3297,5.3274,5.3363,5.3371,5.3379,5.3408,5.3419,5.3287,5.3287,5.3286,5.3286,0,5.2945,5.2985,5.3018,5.3057,5.3083,5.3128,5.3138,5.3164,5.3164,5.3175,5.3233,5.3257,5.3299,5.3315,5.3315,5.3386,5.3376,5.3361,5.3332,5.3392,5.342,5.3431,5.329,5.3289,5.3289,5.3288,0,0,5.303,5.3071,5.3083,5.3102,5.3135,5.3167,5.3212,5.3252,5.3276,5.3305,5.3345,5.3401,5.3388,5.3412,5.3414,5.3448,5.3512,5.3429,5.343,5.3445,5.3595,5.3607,5.362,5.3507,5.3509,5.3511,5.3593,0,5.3102,5.318,5.3184,5.3256,5.3294,5.3286,5.3326,5.3352,5.3364,5.34,5.3414,5.3455,5.3433,5.3448,5.348,5.3497,5.3542,5.3491,5.3547,5.3549,5.354,5.3634,5.3646,5.3722,5.3603,5.3605,5.3606,0,5.3196,5.3228,5.3304,5.3334,5.335,5.3386,5.3424,5.3457,5.3488,5.3495,5.3522,5.3521,5.357,5.3538,5.3608,5.3573,5.3596,5.3608,5.3611,5.3618,5.3582,5.3644,5.3746,5.3759,5.3623,5.3622,5.3621,0,5.3253,5.3315,5.3369,5.3385,5.3421,5.3446,5.3463,5.3491,5.3516,5.3551,5.3567,5.3607,5.363,5.3662,5.3672,5.3648,5.3743,5.3711,5.3752,5.3752,5.3773,5.3772,5.3882,5.3785,5.3785,5.3785,5.3785,0,5.3334,5.3381,5.3395,5.3428,5.3482,5.3487,5.3541,5.3556,5.3582,5.362,5.3615,5.3651,5.3662,5.3701,5.3709,5.3767,5.3777,5.3786,5.3788,5.3787,5.3786,5.3803,5.3799,5.3788,5.3787,5.3787,5.3786,0,5.3406,5.3417,5.3476,5.3505,5.3514,5.3553,5.3579,5.3612,5.3624,5.3673,5.3684,5.3704,5.375,5.3763,5.3818,5.3824,5.3893,5.3889,5.3882,5.3882,5.3923,5.392,5.405,5.4068,5.3957,5.3958,5.3959,0,5.3458,5.3494,5.3528,5.3552,5.357,5.3609,5.3635,5.3642,5.3669,5.3708,5.3737,5.3782,5.3818,5.3892,5.3913,5.3956,5.3954,5.3997,5.3961,5.396,5.3957,5.3956,5.3961,5.4004,5.4005,5.4006,5.4007,0,5.3549,5.3553,5.3589,5.3628,5.3658,5.3689,5.3719,5.374,5.3752,5.3783,5.3829,5.3857,5.3913,5.3959,5.4003,5.4022,5.4018,5.4018,5.403,5.403,5.4026,5.4031,5.3902,5.4015,5.4014,5.4013,5.4013,5.4013,5.3615,5.3647,5.3676,5.3717,5.3741,5.3769,5.3802,5.3819,5.3857,5.3903,5.3905,5.3956,5.3988,5.4047,5.4068,5.411,5.4098,5.4115,5.4119,5.4124,5.4128,5.4018,5.4118,5.4117,5.4117,5.4117,5.4117,0,5.3708,5.3726,5.3764,5.3805,5.3838,5.3829,5.3863,5.3892,5.3936,5.3966,5.4002,5.4056,5.4101,5.4125,5.4171,5.4199,5.4199,5.4211,5.421,5.4215,5.4136,5.4121,5.4211,5.4211,5.4211,5.4211,5.4211,5.4211,5.376,5.3816,5.3823,5.3892,5.391,5.3959,5.3979,5.4006,5.403,5.4091,5.4128,5.4143,5.4172,5.4219,5.4261,5.4267,5.4285,5.43,5.4305,5.423,5.4221,5.4211,5.4198,5.4303,5.4303,5.4382,5.4382,5.4383]}]]